Location: Cussy
(47.1660°N, 4.5871°E)
Time: 16:28:27
(UTC+00:00)

Daily predictions for brighter satellites

Satellite Brightness Start Highest point End
(mag) Time Altitude Azimuth Time Altitude Azimuth Time Altitude Azimuth
Helios 1A Rocket 4.1 17:02:37 10° ESE 17:05:52 23° ENE 17:09:07 10° NNE
Cosmos 1953 Rocket 4.3 17:02:43 10° N 17:06:42 32° ENE 17:10:41 10° SE
Cosmos 1340 4.2 17:04:29 10° NNE 17:06:58 17° ENE 17:09:27 10° ESE
Cosmos 2058 Rocket 4.4 17:04:35 10° SE 17:07:48 20° E 17:11:03 10° NE
ERS-2 2.2 17:04:16 10° NNE 17:07:52 55° ESE 17:11:26 10° S
CORIOLIS 4.1 17:03:04 10° SSE 17:08:25 82° ENE 17:13:48 10° NNW
Cosmos 1939 Rocket 3.6 17:05:11 10° SE 17:08:42 31° ENE 17:12:11 10° N
Cosmos 1328 3.7 17:10:53 10° N 17:14:51 85° E 17:18:48 10° S
SAR-Lupe-4 4.2 17:12:31 10° NNE 17:15:52 36° E 17:19:12 10° SSE
SMAP 3.5 17:13:55 10° S 17:18:33 69° WSW 17:23:13 10° NNW
Cosmos 1331 Rocket 4.1 17:16:22 10° S 17:21:21 51° ESE 17:26:21 10° NNE
Cosmos 2219 3.8 17:16:13 10° NNW 17:21:35 38° NE 17:26:54 10° ESE
Cosmos 1818 4.5 17:16:59 10° WSW 17:22:13 48° NW 17:27:32 10° NNE
Timation 2 Rocket 4.2 17:19:47 10° NNW 17:26:18 61° ENE 17:33:00 10° SE
CZ-4 R/B 2.2 17:25:09 10° SE 17:28:30 28° ENE 17:31:51 10° N
COSMO-SKYMED 1 2.9 17:27:54 10° NNE 17:32:06 45° E 17:36:16 10° S
FALCON 9 DEB 4.1 17:30:12 10° SSW 17:32:59 27° SE 17:34:45 17° E
Aureole 3 3.7 17:30:30 10° SSE 17:33:13 25° E 17:35:46 10° NE
SAR-Lupe-1 4.1 17:30:02 10° NNE 17:33:35 54° ESE 17:37:05 10° S
SeaSat 1 3.6 17:32:11 13° E 17:35:31 24° NE 17:39:28 10° N
Cosmos 1400 Rocket 3.5 17:32:32 10° SSE 17:36:14 33° E 17:39:55 10° NNE
H-2A R/B 3.9 17:33:50 10° N 17:37:34 32° WNW 17:41:14 10° SW
USA 215 4.0 17:33:06 12° ENE 17:38:35 40° N 17:44:35 10° WNW
Okean O Rocket 3.1 17:34:37 10° S 17:38:45 41° W 17:42:55 10° NNW
ATLAS 2AS CENTAUR R/B 4.2 17:33:13 10° NW 17:39:27 25° NNE 17:44:29 13° ENE
CZ-2C R/B 3.6 17:37:46 10° SE 17:43:13 43° ENE 17:48:32 10° N
Cosmos 968 Rocket 4.1 17:38:50 10° N 17:43:37 34° ENE 17:47:57 12° ESE
Cosmos 1825 Rocket 3.9 17:40:26 10° NNW 17:44:53 72° W 17:49:17 10° S
ATLAS 5 CENTAUR R/B 3.8 17:42:27 10° WNW 17:45:37 19° NNW 17:49:06 10° NNE
USA 305 3.8 17:42:28 10° WNW 17:46:29 36° N 17:49:00 19° ENE
GENESIS II 4.2 17:43:50 10° SSW 17:47:51 77° SE 17:51:29 13° NE
Cosmos 1110 Rocket 4.0 17:42:42 10° SSW 17:47:58 87° WNW 17:53:13 10° NNE
Cosmos 1689 Rocket 1.9 17:45:53 10° NNE 17:48:45 62° E 17:51:37 10° S
YAOGAN 1 2.9 17:44:54 10° SE 17:48:59 42° ENE 17:53:05 10° N
Cosmos 1302 Rocket 4.2 17:45:38 10° S 17:50:40 49° ESE 17:55:46 10° NNE
Meteor 2-10 Rocket 4.3 17:46:51 10° SSE 17:51:21 28° E 17:55:44 10° NNE
USA 306 3.7 17:48:47 10° WNW 17:52:48 37° NNE 17:55:01 22° ENE
ARGOS 4.0 17:50:29 14° ESE 17:54:22 30° ENE 17:59:01 10° N
Cosmos 1553 Rocket 4.2 17:48:37 10° SSE 17:54:41 49° E 18:00:42 10° NNE
Cosmos 1486 Rocket 4.4 17:49:38 10° NNW 17:54:45 43° ENE 17:59:22 12° SE
SKYMED 3 4.5 17:51:49 10° NNE 17:56:11 80° ESE 18:00:31 10° S
Meteor 2-8 Rocket 4.4 17:51:28 10° S 17:57:27 60° E 18:03:29 10° NNE
Cosmos 2227 Rocket 2.3 17:53:00 10° NNW 17:58:33 52° ENE 18:03:35 12° SE
SL-4 R/B 2.5 17:56:36 10° WNW 17:59:59 40° N 18:01:41 25° NE
Cosmos 1726 Rocket 3.6 17:57:18 10° SSW 18:01:38 79° W 18:06:03 10° N
Cosmos 1892 3.0 17:58:19 10° N 18:02:03 43° ENE 18:05:38 11° SSE
Cosmos 1656 4.0 17:56:52 10° S 18:02:05 43° ESE 18:07:22 10° NE
Cosmos 1346 Rocket 3.4 18:01:29 10° N 18:05:10 35° ENE 18:06:07 30° ESE
Cosmos 2263 Rocket 3.9 18:03:52 10° N 18:07:13 16° NE 18:07:58 15° NE
NOSS 2-2 (C) 4.5 18:01:48 10° NW 18:07:19 84° NE 18:15:02 10° SE
BREEZE-M R/B 3.6 18:03:41 10° W 18:07:31 67° N 18:11:38 24° E
Okean-O 2.5 18:04:04 10° SSE 18:08:30 84° ENE 18:12:57 10° NNW
CSL-04 Rocket 3.9 18:03:28 10° SE 18:08:49 51° ENE 18:14:09 10° N
CZ-2D R/B 3.3 18:05:19 10° S 18:09:07 77° WSW 18:12:57 10° NNW
MOS 1 Rocket 3.7 18:04:54 10° NNE 18:09:13 38° E 18:13:46 10° SSE
FALCON 9 DEB 4.4 18:07:26 10° WNW 18:10:30 29° N 18:11:23 26° NNE
Aureole 3 Rocket 2.9 18:07:40 10° S 18:11:25 82° E 18:16:36 10° N
Cosmos 1300 3.6 18:10:54 10° SSW 18:14:37 51° WNW 18:18:22 10° N
SJ-11-01 4.3 18:11:33 10° SSE 18:16:01 53° ENE 18:20:35 10° N
Cosmos 2228 4.4 18:12:28 10° SW 18:16:28 40° WNW 18:20:32 10° N
GEOS 3 Rocket 3.6 18:12:44 19° SE 18:16:34 74° NE 18:21:58 10° NW
Cosmos 1697 Rocket 3.3 18:13:18 10° SSE 18:18:11 32° ESE 18:18:39 31° E
SL-08 R/B 4.4 18:13:18 10° N 18:19:32 82° E 18:25:39 10° S
Cosmos 1745 Rocket 4.0 18:13:21 10° N 18:19:35 61° ENE 18:25:50 10° SSE
SKYMED 2 4.2 18:15:56 10° N 18:20:13 59° WNW 18:24:29 10° SSW
Cosmos 44 3.2 18:16:24 10° SW 18:20:53 77° NW 18:24:23 18° NNE
CZ-4C R/B 4.1 18:16:31 10° NNW 18:21:34 23° NNE 18:24:33 18° NE
Lacrosse 5 3.3 18:20:19 10° WNW 18:24:37 27° N 18:26:52 20° NE
Cosmos 1408 2.9 18:22:54 10° N 18:25:48 45° NE 18:25:48 45° NE
H-2A R/B 2.1 18:23:02 10° SSE 18:28:24 70° ENE 18:33:51 10° N
Cosmos 1825 3.8 18:25:13 10° N 18:26:45 21° NNE 18:26:45 21° NNE
CZ-4B R/B 4.4 18:27:58 10° NNW 18:29:59 15° WNW 18:31:57 10° WSW
Meteor 2-15 4.3 18:26:04 10° S 18:32:11 72° E 18:38:18 10° NNE
Cosmos 1992 Rocket 4.2 18:27:19 10° S 18:32:15 45° ESE 18:32:52 43° E
USA 307 3.2 18:30:58 10° NW 18:35:09 49° NNE 18:35:30 48° NE
Cosmos 1386 Rocket 4.4 18:31:04 10° N 18:37:31 78° E 18:43:52 10° SSE
Cosmos 2297 Rocket 2.4 18:33:11 10° NNW 18:38:50 69° WSW 18:44:23 10° SSE
FALCON 9 DEB 3.5 18:36:04 10° WSW 18:38:42 56° WSW 18:38:42 56° WSW
USA 308 3.2 18:35:45 10° NW 18:39:57 52° NNE 18:40:06 51° NNE
Ariane Rocket 3.8 18:41:47 33° NE 18:41:47 33° NE 18:45:24 10° N
Helios 1A Rocket 4.4 18:37:00 10° SSW 18:40:49 37° W 18:44:41 10° NNW
Cosmos 1340 4.0 18:39:13 10° NNW 18:42:48 41° W 18:46:20 10° SSW
Geosat 3.9 18:40:17 18° NNE 18:44:04 90° WNW 18:49:06 10° SSW
BREEZE-M R/B 3.3 18:39:40 10° WNW 18:45:14 65° NNW 18:45:14 65° NNW
Cosmos 2058 Rocket 4.2 18:41:10 10° SSW 18:45:27 45° WNW 18:49:49 10° N
FALCON 9 DEB 4.0 18:42:33 10° WSW 18:44:54 45° WSW 18:44:54 45° WSW
CSL-04 Debris 4.2 18:41:17 10° SSE 18:46:42 79° WSW 18:52:12 10° NNW
Cosmos 1709 Rocket 4.0 18:43:20 10° N 18:49:39 60° ENE 18:51:44 41° SE
Cosmos 2058 3.4 18:56:51 10° NNW 19:00:52 56° W 19:01:47 44° SW
CZ-4 R/B 3.5 19:00:14 10° SSW 19:03:31 25° W 19:06:48 10° NW
Cosmos 2315 Rocket 4.3 18:58:12 10° S 19:05:45 47° NE 19:10:22 10° NNE
Cosmos 2219 4.4 19:00:25 10° NW 19:05:47 41° WSW 19:11:07 10° S
Cosmos 883 Rocket 4.3 19:00:39 10° S 19:06:48 75° E 19:12:56 10° NNE
BREEZE-M TANK 3.2 19:03:01 10° W 19:07:55 50° SW 19:07:55 50° SW
S3M 4.2 19:03:05 10° SSW 19:09:09 69° WNW 19:15:19 10° N
NOSS 3-4 (A) 4.0 19:03:17 10° NW 19:09:55 49° NE 19:10:30 48° NE
NOSS 3-4 (C) 4.0 19:03:23 10° NW 19:10:01 49° NE 19:10:36 48° NE
Timation 1 Rocket 4.2 19:06:18 10° NNW 19:12:20 72° ENE 19:12:20 72° ENE
SeaSat 1 2.7 19:11:59 58° SSW 19:12:40 66° WSW 19:17:35 10° NNW
Cosmos 2082 3.8 19:10:24 10° NNW 19:16:09 76° WSW 19:16:56 64° S
NOSS 3-3 (A) 3.8 19:13:46 10° SSW 19:19:19 78° SSE 19:19:19 78° SSE
NOSS 3-3 (C) 3.8 19:13:51 10° SSW 19:19:26 77° SSE 19:19:26 77° SSE
USA 215 3.2 19:20:27 65° ENE 19:21:04 69° NNE 19:27:33 10° NW
USA 305 4.4 19:22:33 10° WNW 19:25:08 35° WNW 19:25:08 35° WNW
Atlas Centaur 2 4.4 19:21:32 10° SW 19:27:34 23° S 19:27:34 23° S
Cosmos 2369 4.3 19:22:13 10° SSW 19:26:15 48° SSW 19:26:15 48° SSW
ATLAS 2AS CENTAUR R/B 3.1 19:24:48 10° NW 19:31:55 52° NNE 19:31:55 52° NNE
ATLAS 5 CENTAUR R/B 4.3 19:30:03 10° NNW 19:32:17 13° N 19:32:24 13° N
ARGOS 4.1 19:32:00 28° SSW 19:34:25 45° W 19:39:39 10° NNW
Cosmos 2227 Rocket 4.0 19:37:35 10° NW 19:42:17 27° WSW 19:45:29 17° SSW
Cosmos 2263 Rocket 3.5 19:46:39 10° NNW 19:49:39 32° NNW 19:49:39 32° NNW
Cosmos 1697 Rocket 3.9 19:56:36 10° SW 20:00:30 37° W 20:00:30 37° W
Lacrosse 5 4.0 20:04:04 10° NW 20:06:03 21° NNW 20:06:03 21° NNW
CZ-4C R/B 3.7 20:05:01 10° NW 20:09:44 40° N 20:09:44 40° N
